Location: Winthrop
(48.4780°N, 120.1850°W)
Time: 11:39:25
(UTC-07:00)

XW-2A - Visible Passes

Search period start: 17 May 2022 00:00
Search period end: 27 May 2022 00:00
Orbit: 404 x 416 km, 97.2° (Epoch: 17 May)

Date Brightness Start Highest point End Pass type
(mag) Time Alt. Az. Time Alt. Az. Time Alt. Az.
17 May ? 22:34:00 10° SSW 22:36:36 23° W 22:39:14 10° NW visible
18 May ? 21:46:24 11° SSE 21:49:27 84° ENE 21:52:41 10° NNW visible
19 May ? 22:31:47 10° SSW 22:34:27 24° W 22:37:08 10° NW visible
20 May ? 21:44:02 10° SSE 21:47:13 78° ENE 21:50:26 10° N visible
21 May ? 22:29:23 10° SSW 22:32:06 26° W 22:34:51 10° NW visible
22 May ? 21:41:37 10° SSE 21:44:47 72° ENE 21:48:00 10° N visible
23 May ? 22:26:47 10° SSW 22:29:34 27° W 22:32:23 10° NW visible
24 May ? 21:39:02 10° SSE 21:42:12 66° ENE 21:45:22 10° N visible
25 May ? 22:24:00 10° SSW 22:26:52 30° W 22:29:43 10° NNW visible
26 May ? 21:36:16 10° SSE 21:39:24 59° ENE 21:42:34 10° N visible
